JBU822 KPBI-KBOS

Flight info

Callsign JBU822
Flight time N/A
Altitude 31000
Route SLIDZ3 LENDS GRUBR Y299 SEELO WAALT Q131 EARZZ JAMIE Q133 JFK ROBUC3
Aircraft A320/M-SDE3FGHIRWY/LB1

Departure

Time N/A
Airport Palm Beach International Airport (KPBI)

Arrival

Time 2026-05-06 20:54
Airport Boston Logan International Airport (KBOS)
Time Latitude Longitude Altitude Speed Heading
2026-05-06 19:55 37.86860 -75.74567 30943 ft 505 kts 25°
2026-05-06 19:55 37.89799 -75.72120 30944 ft 506 kts 25°
2026-05-06 19:56 37.95677 -75.67219 30964 ft 505 kts 25°
2026-05-06 19:56 38.01538 -75.62306 30966 ft 505 kts 25°
2026-05-06 19:57 38.07397 -75.57392 30964 ft 504 kts 25°
2026-05-06 19:57 38.13247 -75.52479 30965 ft 504 kts 25°
2026-05-06 19:58 38.19097 -75.47560 30944 ft 504 kts 25°
2026-05-06 19:58 38.24998 -75.42790 30945 ft 496 kts 18°
2026-05-06 19:59 38.28119 -75.41081 30944 ft 483 kts
2026-05-06 19:59 38.31321 -75.39999 30917 ft 470 kts 359°
2026-05-06 19:59 38.37744 -75.38648 30919 ft 468 kts 358°
2026-05-06 20:00 38.44172 -75.37287 30924 ft 468 kts 358°
2026-05-06 20:00 38.50598 -75.35915 30921 ft 468 kts 358°
2026-05-06 20:01 38.57020 -75.34543 30921 ft 468 kts 358°
2026-05-06 20:01 38.63437 -75.33179 30921 ft 467 kts 358°
2026-05-06 20:02 38.69848 -75.31814 30926 ft 467 kts 358°
2026-05-06 20:02 38.76245 -75.30247 30925 ft 477 kts
2026-05-06 20:03 38.79377 -75.28661 30929 ft 493 kts 17°
2026-05-06 20:03 38.82361 -75.26563 30921 ft 496 kts 19°
2026-05-06 20:03 38.88394 -75.22258 30915 ft 496 kts 18°
2026-05-06 20:04 38.94432 -75.17955 30914 ft 496 kts 18°
2026-05-06 20:04 39.00470 -75.13665 30912 ft 496 kts 18°
2026-05-06 20:05 39.06504 -75.09372 30906 ft 496 kts 18°
2026-05-06 20:05 39.12530 -75.05059 30894 ft 496 kts 18°
2026-05-06 20:06 39.18563 -75.00726 30893 ft 496 kts 18°
2026-05-06 20:06 39.24596 -74.96386 30873 ft 497 kts 18°
2026-05-06 20:07 39.30430 -74.91388 30877 ft 506 kts 25°
2026-05-06 20:07 39.36191 -74.86145 30883 ft 506 kts 25°
2026-05-06 20:08 39.41951 -74.80892 30880 ft 507 kts 25°
2026-05-06 20:08 39.47706 -74.75627 30879 ft 507 kts 25°
2026-05-06 20:09 39.53457 -74.70359 30877 ft 507 kts 25°
2026-05-06 20:09 39.59219 -74.65083 30875 ft 507 kts 25°
2026-05-06 20:10 39.64976 -74.59784 30881 ft 508 kts 25°
2026-05-06 20:10 39.70732 -74.54474 30880 ft 508 kts 25°
2026-05-06 20:11 39.76488 -74.49157 30881 ft 508 kts 25°
2026-05-06 20:11 39.82248 -74.43836 30883 ft 508 kts 25°
2026-05-06 20:12 39.88011 -74.38503 30883 ft 509 kts 26°
2026-05-06 20:12 39.93782 -74.33135 30884 ft 509 kts 26°
2026-05-06 20:13 39.99548 -74.27764 30870 ft 510 kts 26°
2026-05-06 20:13 40.05320 -74.22388 30867 ft 510 kts 26°
2026-05-06 20:14 40.11055 -74.17027 30861 ft 510 kts 26°
2026-05-06 20:14 40.16818 -74.11619 30862 ft 510 kts 26°
2026-05-06 20:15 40.22589 -74.06202 30859 ft 510 kts 26°
2026-05-06 20:15 40.28347 -74.00786 30868 ft 510 kts 26°
2026-05-06 20:16 40.34135 -73.95426 30871 ft 504 kts 21°
2026-05-06 20:16 40.37191 -73.93300 30872 ft 493 kts 14°
2026-05-06 20:16 40.40297 -73.91383 30874 ft 493 kts 14°
2026-05-06 20:17 40.46510 -73.87554 30878 ft 493 kts 14°
2026-05-06 20:17 40.52722 -73.83716 30882 ft 493 kts 14°
2026-05-06 20:18 40.58935 -73.79859 30878 ft 494 kts 15°
2026-05-06 20:18 40.61977 -73.77668 30856 ft 506 kts 24°
2026-05-06 20:18 40.64802 -73.74814 30523 ft 519 kts 35°
2026-05-06 20:19 40.67314 -73.71335 30155 ft 527 kts 41°
2026-05-06 20:19 40.68929 -73.68949 29934 ft 527 kts 41°
2026-05-06 20:19 40.71369 -73.65344 29525 ft 528 kts 41°
2026-05-06 20:19 40.73816 -73.61737 29080 ft 528 kts 41°
2026-05-06 20:20 40.76270 -73.58130 28604 ft 528 kts 41°
2026-05-06 20:20 40.78717 -73.54545 28126 ft 524 kts 41°
2026-05-06 20:20 40.81151 -73.50984 27655 ft 520 kts 41°
2026-05-06 20:20 40.83562 -73.47447 27201 ft 516 kts 42°
2026-05-06 20:21 40.85946 -73.43939 26897 ft 512 kts 42°
2026-05-06 20:21 40.88316 -73.40437 26844 ft 510 kts 42°
2026-05-06 20:21 40.90687 -73.36934 26728 ft 511 kts 42°
2026-05-06 20:21 40.93045 -73.33445 26451 ft 508 kts 42°
2026-05-06 20:22 40.95394 -73.29967 26183 ft 505 kts 42°
2026-05-06 20:22 40.97729 -73.26509 25908 ft 503 kts 42°
2026-05-06 20:22 41.00051 -73.23063 25645 ft 500 kts 43°
2026-05-06 20:22 41.02361 -73.19632 25377 ft 498 kts 43°
2026-05-06 20:23 41.04660 -73.16218 25126 ft 495 kts 43°
2026-05-06 20:23 41.06947 -73.12817 24869 ft 493 kts 43°
2026-05-06 20:23 41.09218 -73.09437 24615 ft 491 kts 43°
2026-05-06 20:23 41.11483 -73.06061 24355 ft 488 kts 43°
2026-05-06 20:24 41.13733 -73.02698 24103 ft 486 kts 43°
2026-05-06 20:24 41.15970 -72.99353 23860 ft 484 kts 44°
2026-05-06 20:24 41.18196 -72.96017 23614 ft 481 kts 44°
2026-05-06 20:24 41.20356 -72.92631 23352 ft 482 kts 49°
2026-05-06 20:25 41.22174 -72.88888 23000 ft 483 kts 59°
2026-05-06 20:25 41.23700 -72.84925 22799 ft 481 kts 61°
2026-05-06 20:25 41.25212 -72.80961 22857 ft 481 kts 61°
2026-05-06 20:25 41.26726 -72.76991 22847 ft 481 kts 61°
2026-05-06 20:26 41.28239 -72.73025 22853 ft 481 kts 61°
2026-05-06 20:26 41.29752 -72.69052 22851 ft 481 kts 61°
2026-05-06 20:26 41.31265 -72.65083 22865 ft 481 kts 61°
2026-05-06 20:26 41.32778 -72.61114 22870 ft 481 kts 61°
2026-05-06 20:27 41.34287 -72.57146 22867 ft 481 kts 62°
2026-05-06 20:27 41.35793 -72.53174 22865 ft 481 kts 62°
2026-05-06 20:27 41.37298 -72.49198 22865 ft 481 kts 62°
2026-05-06 20:27 41.38801 -72.45224 22866 ft 480 kts 62°
2026-05-06 20:28 41.40304 -72.41251 22870 ft 480 kts 62°
2026-05-06 20:28 41.41803 -72.37275 22868 ft 480 kts 62°
2026-05-06 20:28 41.43303 -72.33298 22866 ft 480 kts 62°
2026-05-06 20:28 41.44801 -72.29325 22859 ft 481 kts 62°
2026-05-06 20:29 41.46300 -72.25341 22433 ft 479 kts 62°
2026-05-06 20:29 41.47782 -72.21385 21990 ft 475 kts 63°
2026-05-06 20:29 41.49245 -72.17449 21558 ft 472 kts 63°
2026-05-06 20:29 41.50682 -72.13531 21129 ft 469 kts 63°
2026-05-06 20:30 41.52106 -72.09625 20702 ft 466 kts 64°
2026-05-06 20:30 41.54915 -72.01885 19876 ft 461 kts 64°
2026-05-06 20:30 41.56278 -71.98025 19465 ft 458 kts 66°
2026-05-06 20:31 41.57533 -71.94132 19066 ft 455 kts 68°
2026-05-06 20:31 41.58686 -71.90271 18694 ft 453 kts 69°
2026-05-06 20:31 41.59806 -71.86353 18303 ft 450 kts 70°
2026-05-06 20:31 41.60908 -71.82454 17873 ft 447 kts 70°
2026-05-06 20:32 41.62010 -71.78576 17428 ft 444 kts 70°
2026-05-06 20:32 41.63111 -71.74768 17129 ft 434 kts 70°
2026-05-06 20:32 41.64197 -71.71060 16869 ft 423 kts 69°
2026-05-06 20:32 41.65266 -71.67446 16631 ft 413 kts 69°
2026-05-06 20:33 41.66313 -71.63912 16377 ft 404 kts 69°
2026-05-06 20:33 41.67337 -71.60452 16125 ft 396 kts 70°
2026-05-06 20:33 41.68336 -71.57056 15850 ft 390 kts 70°
2026-05-06 20:33 41.69322 -71.53702 15609 ft 387 kts 70°
2026-05-06 20:34 41.70302 -71.50358 15385 ft 385 kts 70°
2026-05-06 20:34 41.71272 -71.47025 15164 ft 384 kts 70°
2026-05-06 20:34 41.72252 -71.43709 14954 ft 383 kts 67°
2026-05-06 20:34 41.73496 -71.40557 14738 ft 382 kts 60°
2026-05-06 20:35 41.74815 -71.37471 14520 ft 382 kts 60°
2026-05-06 20:35 41.76135 -71.34394 14314 ft 380 kts 60°
2026-05-06 20:35 41.77451 -71.31329 14051 ft 379 kts 60°
2026-05-06 20:35 41.78759 -71.28268 13739 ft 377 kts 60°
2026-05-06 20:36 41.80056 -71.25221 13393 ft 376 kts 60°
2026-05-06 20:36 41.81350 -71.22184 13073 ft 374 kts 61°
2026-05-06 20:36 41.82640 -71.19156 12753 ft 373 kts 61°
2026-05-06 20:36 41.83920 -71.16139 12450 ft 371 kts 62°
2026-05-06 20:37 41.85183 -71.13159 12261 ft 365 kts 61°
2026-05-06 20:37 41.86433 -71.10225 11961 ft 359 kts 61°
2026-05-06 20:37 41.87680 -71.07335 11770 ft 357 kts 61°
2026-05-06 20:37 41.88928 -71.04463 11620 ft 356 kts 61°
2026-05-06 20:38 41.90174 -71.01591 11452 ft 355 kts 61°
2026-05-06 20:38 41.91412 -70.98730 11294 ft 354 kts 62°
2026-05-06 20:38 41.92646 -70.95871 11136 ft 354 kts 62°
2026-05-06 20:38 41.93874 -70.93015 11031 ft 352 kts 62°
2026-05-06 20:39 41.95099 -70.90159 10850 ft 354 kts 62°
2026-05-06 20:39 41.96323 -70.87307 10657 ft 351 kts 62°
2026-05-06 20:39 41.97542 -70.84467 10507 ft 350 kts 62°
2026-05-06 20:39 41.98756 -70.81636 10347 ft 349 kts 62°
2026-05-06 20:40 41.99968 -70.78808 10190 ft 349 kts 63°
2026-05-06 20:40 42.01256 -70.76050 10033 ft 349 kts 53°
2026-05-06 20:40 42.02848 -70.73573 9652 ft 350 kts 49°
2026-05-06 20:40 42.04476 -70.71139 9304 ft 348 kts 49°
2026-05-06 20:41 42.06090 -70.68733 8988 ft 345 kts 49°
2026-05-06 20:41 42.07669 -70.66376 8680 ft 343 kts 49°
2026-05-06 20:41 42.09289 -70.64036 8371 ft 340 kts 42°
2026-05-06 20:41 42.11180 -70.62168 8073 ft 336 kts 26°
2026-05-06 20:42 42.13308 -70.60952 7767 ft 329 kts 11°
2026-05-06 20:42 42.15522 -70.60297 7473 ft 325 kts
2026-05-06 20:42 42.17731 -70.59688 7179 ft 323 kts
2026-05-06 20:42 42.19928 -70.59076 6889 ft 322 kts
2026-05-06 20:43 42.22115 -70.58466 6601 ft 320 kts
2026-05-06 20:43 42.24291 -70.57861 6296 ft 319 kts
2026-05-06 20:43 42.26459 -70.57261 5969 ft 318 kts
2026-05-06 20:43 42.28623 -70.56655 5645 ft 317 kts
2026-05-06 20:44 42.30783 -70.56425 5319 ft 306 kts 348°
2026-05-06 20:44 42.32810 -70.57016 5065 ft 290 kts 329°
2026-05-06 20:44 42.34543 -70.58271 5032 ft 277 kts 313°
2026-05-06 20:44 42.35957 -70.59977 5034 ft 271 kts 305°
2026-05-06 20:45 42.37309 -70.61760 4907 ft 271 kts 305°
2026-05-06 20:45 42.38659 -70.63527 4724 ft 270 kts 305°
2026-05-06 20:45 42.40004 -70.65284 4552 ft 269 kts 305°
2026-05-06 20:45 42.41346 -70.67043 4372 ft 268 kts 305°
2026-05-06 20:46 42.42681 -70.68796 4196 ft 267 kts 305°
2026-05-06 20:46 42.44009 -70.70543 3988 ft 265 kts 304°
2026-05-06 20:46 42.45327 -70.72277 3762 ft 263 kts 304°
2026-05-06 20:46 42.46631 -70.73992 3542 ft 259 kts 304°
2026-05-06 20:47 42.47911 -70.75670 3381 ft 253 kts 304°
2026-05-06 20:47 42.49151 -70.77293 3171 ft 242 kts 304°
2026-05-06 20:47 42.50337 -70.78815 2950 ft 228 kts 304°
2026-05-06 20:47 42.51477 -70.80255 2722 ft 221 kts 304°
2026-05-06 20:48 42.52587 -70.81657 2498 ft 215 kts 302°
2026-05-06 20:48 42.53362 -70.83217 2274 ft 190 kts 280°
2026-05-06 20:48 42.53820 -70.84854 2083 ft 182 kts 276°
2026-05-06 20:48 42.54227 -70.86479 2001 ft 182 kts 276°
2026-05-06 20:49 42.54536 -70.88123 2008 ft 175 kts 263°
2026-05-06 20:49 42.54441 -70.89714 2008 ft 166 kts 246°
2026-05-06 20:49 42.53980 -70.91098 2012 ft 158 kts 230°
2026-05-06 20:49 42.53238 -70.92164 2005 ft 155 kts 215°
2026-05-06 20:50 42.52285 -70.92845 2003 ft 156 kts 201°
2026-05-06 20:50 42.51270 -70.93336 2007 ft 154 kts 202°
2026-05-06 20:50 42.50255 -70.93830 2007 ft 155 kts 201°
2026-05-06 20:50 42.49235 -70.94326 2007 ft 158 kts 203°
2026-05-06 20:51 42.48233 -70.94812 2025 ft 148 kts 202°
2026-05-06 20:51 42.47292 -70.95268 1991 ft 139 kts 204°
2026-05-06 20:51 42.46399 -70.95702 1892 ft 134 kts 204°
2026-05-06 20:51 42.45527 -70.96126 1751 ft 132 kts 203°
2026-05-06 20:52 42.44673 -70.96542 1586 ft 132 kts 202°
2026-05-06 20:52 42.43790 -70.96970 1404 ft 133 kts 201°
2026-05-06 20:52 42.42922 -70.97392 1224 ft 133 kts 200°
2026-05-06 20:52 42.42055 -70.97812 1048 ft 132 kts 200°
2026-05-06 20:53 42.41179 -70.98237 853 ft 133 kts 200°
2026-05-06 20:53 42.40303 -70.98661 662 ft 134 kts 199°
2026-05-06 20:53 42.39429 -70.99083 502 ft 131 kts 199°
2026-05-06 20:53 42.38574 -70.99497 318 ft 130 kts 199°
2026-05-06 20:54 42.37722 -70.99919 126 ft 131 kts 199°
2026-05-06 20:54 42.36894 -71.00323 27 ft 119 kts 199°
2026-05-06 20:54 42.36358 -71.00578 28 ft 56 kts 199°
2026-05-06 20:54 42.36165 -71.00687 28 ft 17 kts 231°
2026-05-06 20:55 42.36155 -71.00829 29 ft 15 kts 290°
2026-05-06 20:55 42.36195 -71.00950 28 ft 13 kts 294°
2026-05-06 20:55 42.36229 -71.01055 30 ft 11 kts 294°
2026-05-06 20:55 42.36259 -71.01144 28 ft 9 kts 294°
2026-05-06 20:56 42.36293 -71.01223 26 ft 10 kts 301°
2026-05-06 20:56 42.36329 -71.01300 28 ft 9 kts 302°
2026-05-06 20:56 42.36364 -71.01376 28 ft 9 kts 301°
2026-05-06 20:56 42.36389 -71.01459 27 ft 10 kts 293°
2026-05-06 20:57 42.36421 -71.01533 28 ft 8 kts 301°
2026-05-06 20:57 42.36448 -71.01594 29 ft 7 kts 300°
2026-05-06 20:57 42.36450 -71.01647 29 ft 6 kts 246°
2026-05-06 20:57 42.36428 -71.01698 27 ft 6 kts 240°
2026-05-06 20:58 42.36399 -71.01723 26 ft 5 kts 186°
2026-05-06 20:58 42.36368 -71.01723 28 ft 3 kts 180°
2026-05-06 20:58 42.36366 -71.01723 28 ft 0 kts 180°